M I D A S
Marine Information and Data Acquisition System
Tripno 1284 of the Zeeleeuw from 2007-06-11 04:43:44 to 2007-06-11 13:47:03
Back to CruiseResearch ActivitiesStationsMapUnderway DataData graphs

EquipmentUnitsComment
TimeDGPSUTC
LatitudeDGPSDM.mWGS84
LongitudeDGPSDM.mWGS84
TemperatureSBE03/SBE38deg celciusITS90
ConductivitySBE21S/mITS90
SalinitySBE21 Practical Salinity Units
ChlorophylAChelsea fluorimeterg/lCalibrated in Aceton
Missing or incorrect values are displayed as -999
Sea surface data collected by the RV Zeeleeuw from 2007-06-11 04:46:55 to 2007-06-11 13:58:25
Time Latitude Longitude Temperature Conductivity Salinity ChlorophylA
2007-06-11 04:48:03 51°13.6 2°56.061 -999 -999 -999 -999
2007-06-11 04:49:03 51°13.643 2°55.931 -999 -999 -999 -999
2007-06-11 04:50:03 51°13.679 2°55.805 -999 -999 -999 -999
2007-06-11 04:51:03 51°13.686 2°55.743 -999 -999 -999 -999
2007-06-11 04:52:03 51°13.699 2°55.751 -999 -999 -999 -999
2007-06-11 04:53:01 51°13.736 2°55.738 -999 -999 -999 -999
2007-06-11 04:53:59 51°13.803 2°55.667 -999 -999 -999 -999
2007-06-11 04:55:00 51°13.899 2°55.599 -999 -999 -999 -999
2007-06-11 04:56:00 51°14.004 2°55.53 -999 -999 -999 -999
2007-06-11 04:57:00 51°14.133 2°55.43 -999 -999 -999 -999
2007-06-11 04:58:01 51°14.263 2°55.262 -999 -999 -999 -999
2007-06-11 04:58:59 51°14.377 2°55.038 -999 -999 -999 -999
2007-06-11 04:59:59 51°14.523 2°54.8 -999 -999 -999 -999
2007-06-11 05:00:59 51°14.691 2°54.588 -999 -999 -999 -999
2007-06-11 05:01:59 51°14.863 2°54.377 -999 -999 -999 -999
2007-06-11 05:02:59 51°15.034 2°54.174 -999 -999 -999 -999
2007-06-11 05:04:00 51°15.214 2°53.975 -999 -999 -999 -999
2007-06-11 05:04:59 51°15.389 2°53.783 -999 -999 -999 -999
2007-06-11 05:05:59 51°15.572 2°53.603 -999 -999 -999 -999
2007-06-11 05:06:59 51°15.761 2°53.444 -999 -999 -999 -999
2007-06-11 05:07:59 51°15.95 2°53.284 -999 -999 -999 -999
2007-06-11 05:08:59 51°16.138 2°53.127 -999 -999 -999 -999
2007-06-11 05:09:59 51°16.329 2°52.979 -999 -999 -999 -999
2007-06-11 05:11:00 51°16.526 2°52.841 -999 -999 -999 -999
2007-06-11 05:11:59 51°16.716 2°52.71 -999 -999 -999 -999
2007-06-11 05:13:00 51°16.913 2°52.589 -999 -999 -999 -999
2007-06-11 05:13:59 51°17.107 2°52.487 -999 -999 -999 -999
2007-06-11 05:15:00 51°17.305 2°52.375 -999 -999 -999 -999
2007-06-11 05:15:59 51°17.499 2°52.269 -999 -999 -999 -999
2007-06-11 05:16:59 51°17.694 2°52.161 -999 -999 -999 -999
2007-06-11 05:17:59 51°17.89 2°52.057 -999 -999 -999 -999
2007-06-11 05:18:59 51°18.087 2°51.953 -999 -999 -999 -999
2007-06-11 05:20:00 51°18.289 2°51.849 -999 -999 -999 -999
2007-06-11 05:20:59 51°18.485 2°51.747 -999 -999 -999 -999
2007-06-11 05:22:00 51°18.687 2°51.64 -999 -999 -999 -999
2007-06-11 05:22:59 51°18.882 2°51.535 -999 -999 -999 -999
2007-06-11 05:24:00 51°19.083 2°51.425 -999 -999 -999 -999
2007-06-11 05:24:59 51°19.278 2°51.32 -999 -999 -999 -999
2007-06-11 05:25:59 51°19.478 2°51.216 -999 -999 -999 -999
2007-06-11 05:26:59 51°19.681 2°51.138 -999 -999 -999 -999
2007-06-11 05:27:59 51°19.884 2°51.062 -999 -999 -999 -999
2007-06-11 05:28:59 51°20.088 2°50.98 -999 -999 -999 -999
2007-06-11 05:29:59 51°20.289 2°50.894 -999 -999 -999 -999
2007-06-11 05:30:59 51°20.493 2°50.807 -999 -999 -999 -999
2007-06-11 05:31:59 51°20.698 2°50.715 -999 -999 -999 -999
2007-06-11 05:32:59 51°20.906 2°50.645 -999 -999 -999 -999
2007-06-11 05:34:00 51°21.119 2°50.575 -999 -999 -999 -999
2007-06-11 05:35:00 51°21.313 2°50.426 -999 -999 -999 -999
2007-06-11 05:36:00 51°21.482 2°50.198 -999 -999 -999 -999
2007-06-11 05:37:00 51°21.639 2°49.949 -999 -999 -999 -999
2007-06-11 05:38:00 51°21.794 2°49.706 -999 -999 -999 -999
2007-06-11 05:39:00 51°21.952 2°49.469 -999 -999 -999 -999
2007-06-11 05:40:00 51°22.105 2°49.225 -999 -999 -999 -999
2007-06-11 05:41:00 51°22.256 2°48.978 -999 -999 -999 -999
2007-06-11 05:42:00 51°22.405 2°48.731 -999 -999 -999 -999
2007-06-11 05:43:00 51°22.553 2°48.485 -999 -999 -999 -999
2007-06-11 05:44:00 51°22.684 2°48.215 -999 -999 -999 -999
2007-06-11 05:45:00 51°22.814 2°47.939 -999 -999 -999 -999
2007-06-11 05:46:00 51°22.936 2°47.648 -999 -999 -999 -999
2007-06-11 05:47:00 51°23.034 2°47.333 -999 -999 -999 -999
2007-06-11 05:48:00 51°23.094 2°46.987 -999 -999 -999 -999
2007-06-11 05:49:00 51°23.158 2°46.644 -999 -999 -999 -999
2007-06-11 05:50:00 51°23.225 2°46.305 -999 -999 -999 -999
2007-06-11 05:51:00 51°23.251 2°45.95 -999 -999 -999 -999
2007-06-11 05:52:00 51°23.266 2°45.587 -999 -999 -999 -999
2007-06-11 05:53:00 51°23.311 2°45.231 -999 -999 -999 -999
2007-06-11 05:54:00 51°23.363 2°44.877 -999 -999 -999 -999
2007-06-11 05:55:00 51°23.417 2°44.522 -999 -999 -999 -999
2007-06-11 05:56:00 51°23.487 2°44.188 -999 -999 -999 -999
2007-06-11 05:57:00 51°23.611 2°43.964 -999 -999 -999 -999
2007-06-11 05:58:00 51°23.711 2°43.971 -999 -999 -999 -999
2007-06-11 05:59:00 51°23.775 2°44.088 -999 -999 -999 -999
2007-06-11 06:00:00 51°23.832 2°44.16 -999 -999 -999 -999
2007-06-11 06:01:00 51°23.862 2°44.219 -999 -999 -999 -999
2007-06-11 06:02:00 51°23.89 2°44.262 -999 -999 -999 -999
2007-06-11 06:03:00 51°23.921 2°44.302 -999 -999 -999 -999
2007-06-11 06:04:00 51°23.943 2°44.343 -999 -999 -999 -999
2007-06-11 06:05:00 51°23.964 2°44.364 -999 -999 -999 -999
2007-06-11 06:06:00 51°23.985 2°44.359 -999 -999 -999 -999
2007-06-11 06:07:00 51°24.001 2°44.347 -999 -999 -999 -999
2007-06-11 06:08:00 51°24.012 2°44.334 -999 -999 -999 -999
2007-06-11 06:09:00 51°24.022 2°44.322 -999 -999 -999 -999
2007-06-11 06:10:00 51°24.04 2°44.301 -999 -999 -999 -999
2007-06-11 06:11:00 51°24.054 2°44.247 -999 -999 -999 -999
2007-06-11 06:12:00 51°24.013 2°44.165 -999 -999 -999 -999
2007-06-11 06:13:00 51°23.965 2°44.166 -999 -999 -999 -999
2007-06-11 06:14:00 51°23.943 2°44.178 -999 -999 -999 -999
2007-06-11 06:15:00 51°23.934 2°44.181 -999 -999 -999 -999
2007-06-11 06:16:00 51°23.928 2°44.179 -999 -999 -999 -999
2007-06-11 06:17:00 51°23.922 2°44.177 -999 -999 -999 -999
2007-06-11 06:18:00 51°23.917 2°44.174 -999 -999 -999 -999
2007-06-11 06:19:00 51°23.912 2°44.171 -999 -999 -999 -999
2007-06-11 06:20:00 51°23.907 2°44.169 -999 -999 -999 -999
2007-06-11 06:21:00 51°23.902 2°44.165 -999 -999 -999 -999
2007-06-11 06:22:00 51°23.897 2°44.162 -999 -999 -999 -999
2007-06-11 06:23:00 51°23.892 2°44.159 -999 -999 -999 -999
2007-06-11 06:24:01 51°23.888 2°44.157 -999 -999 -999 -999
2007-06-11 06:25:00 51°23.883 2°44.154 -999 -999 -999 -999
2007-06-11 06:26:00 51°23.879 2°44.152 -999 -999 -999 -999
2007-06-11 06:27:00 51°23.875 2°44.151 -999 -999 -999 -999
2007-06-11 06:28:00 51°23.871 2°44.15 -999 -999 -999 -999
2007-06-11 06:29:00 51°23.868 2°44.149 -999 -999 -999 -999
2007-06-11 06:30:00 51°23.864 2°44.149 -999 -999 -999 -999
2007-06-11 06:31:00 51°23.862 2°44.148 -999 -999 -999 -999
2007-06-11 06:32:00 51°23.859 2°44.148 -999 -999 -999 -999
2007-06-11 06:33:00 51°23.857 2°44.15 -999 -999 -999 -999
2007-06-11 06:34:00 51°23.869 2°44.193 -999 -999 -999 -999
2007-06-11 06:35:00 51°23.883 2°44.224 -999 -999 -999 -999
2007-06-11 06:36:00 51°23.88 2°44.218 -999 -999 -999 -999
2007-06-11 06:37:00 51°23.877 2°44.214 -999 -999 -999 -999
2007-06-11 06:38:00 51°23.876 2°44.21 -999 -999 -999 -999
2007-06-11 06:39:00 51°23.874 2°44.209 -999 -999 -999 -999
2007-06-11 06:40:00 51°23.874 2°44.208 -999 -999 -999 -999
2007-06-11 06:41:00 51°23.873 2°44.208 -999 -999 -999 -999
2007-06-11 06:42:00 51°23.874 2°44.209 -999 -999 -999 -999
2007-06-11 06:43:00 51°23.873 2°44.21 -999 -999 -999 -999
2007-06-11 06:44:00 51°23.873 2°44.212 -999 -999 -999 -999
2007-06-11 06:45:00 51°23.873 2°44.215 -999 -999 -999 -999
2007-06-11 06:46:00 51°23.873 2°44.219 -999 -999 -999 -999
2007-06-11 06:47:00 51°23.874 2°44.223 -999 -999 -999 -999
2007-06-11 06:48:00 51°23.875 2°44.229 -999 -999 -999 -999
2007-06-11 06:49:00 51°23.876 2°44.236 -999 -999 -999 -999
2007-06-11 06:50:00 51°23.875 2°44.264 -999 -999 -999 -999
2007-06-11 06:51:00 51°23.88 2°44.336 -999 -999 -999 -999
2007-06-11 06:52:00 51°23.896 2°44.385 -999 -999 -999 -999
2007-06-11 06:53:00 51°23.91 2°44.415 -999 -999 -999 -999
2007-06-11 06:54:00 51°23.919 2°44.436 -999 -999 -999 -999
2007-06-11 06:55:00 51°23.928 2°44.457 -999 -999 -999 -999
2007-06-11 06:56:00 51°23.934 2°44.476 -999 -999 -999 -999
2007-06-11 06:57:00 51°23.942 2°44.493 -999 -999 -999 -999
2007-06-11 06:58:00 51°23.949 2°44.509 -999 -999 -999 -999
2007-06-11 06:59:00 51°23.957 2°44.525 -999 -999 -999 -999
2007-06-11 07:00:00 51°23.963 2°44.541 -999 -999 -999 -999
2007-06-11 07:01:00 51°23.97 2°44.558 -999 -999 -999 -999
2007-06-11 07:02:00 51°23.977 2°44.579 -999 -999 -999 -999
2007-06-11 07:03:00 51°24.016 2°44.609 -999 -999 -999 -999
2007-06-11 07:04:00 51°24.057 2°44.554 -999 -999 -999 -999
2007-06-11 07:05:00 51°24.037 2°44.486 -999 -999 -999 -999
2007-06-11 07:06:00 51°24.003 2°44.433 -999 -999 -999 -999
2007-06-11 07:07:00 51°23.991 2°44.401 -999 -999 -999 -999
2007-06-11 07:08:00 51°23.992 2°44.383 -999 -999 -999 -999
2007-06-11 07:09:00 51°23.997 2°44.371 -999 -999 -999 -999
2007-06-11 07:10:00 51°24.005 2°44.364 -999 -999 -999 -999
2007-06-11 07:11:00 51°24.014 2°44.361 -999 -999 -999 -999
2007-06-11 07:12:00 51°24.022 2°44.36 -999 -999 -999 -999
2007-06-11 07:13:00 51°24.031 2°44.353 -999 -999 -999 -999
2007-06-11 07:14:00 51°24.026 2°44.321 -999 -999 -999 -999
2007-06-11 07:15:00 51°23.991 2°44.326 -999 -999 -999 -999
2007-06-11 07:16:00 51°23.972 2°44.369 -999 -999 -999 -999
2007-06-11 07:17:00 51°23.964 2°44.409 -999 -999 -999 -999
2007-06-11 07:18:00 51°23.961 2°44.446 -999 -999 -999 -999
2007-06-11 07:19:00 51°23.962 2°44.478 -999 -999 -999 -999
2007-06-11 07:20:00 51°23.962 2°44.508 -999 -999 -999 -999
2007-06-11 07:21:00 51°23.965 2°44.535 -999 -999 -999 -999
2007-06-11 07:22:00 51°23.97 2°44.562 -999 -999 -999 -999
2007-06-11 07:23:00 51°23.975 2°44.586 -999 -999 -999 -999
2007-06-11 07:24:00 51°23.98 2°44.609 -999 -999 -999 -999
2007-06-11 07:25:00 51°23.986 2°44.631 -999 -999 -999 -999
2007-06-11 07:26:00 51°23.992 2°44.652 -999 -999 -999 -999
2007-06-11 07:27:00 51°23.998 2°44.674 -999 -999 -999 -999
2007-06-11 07:28:00 51°24.005 2°44.696 -999 -999 -999 -999
2007-06-11 07:29:00 51°24.013 2°44.719 -999 -999 -999 -999
2007-06-11 07:30:00 51°24.031 2°44.78 -999 -999 -999 -999
2007-06-11 07:31:00 51°24.089 2°44.822 -999 -999 -999 -999
2007-06-11 07:32:00 51°24.129 2°44.767 -999 -999 -999 -999
2007-06-11 07:33:00 51°24.099 2°44.688 -999 -999 -999 -999
2007-06-11 07:34:00 51°24.046 2°44.584 -999 -999 -999 -999
2007-06-11 07:35:00 51°24.003 2°44.491 -999 -999 -999 -999
2007-06-11 07:36:00 51°23.965 2°44.444 -999 -999 -999 -999
2007-06-11 07:37:00 51°23.944 2°44.424 -999 -999 -999 -999
2007-06-11 07:38:00 51°23.931 2°44.417 -999 -999 -999 -999
2007-06-11 07:39:00 51°23.932 2°44.419 -999 -999 -999 -999
2007-06-11 07:40:00 51°23.938 2°44.423 -999 -999 -999 -999
2007-06-11 07:41:00 51°23.946 2°44.431 -999 -999 -999 -999
2007-06-11 07:42:00 51°23.955 2°44.442 -999 -999 -999 -999
2007-06-11 07:43:00 51°23.966 2°44.456 -999 -999 -999 -999
2007-06-11 07:44:00 51°23.975 2°44.47 -999 -999 -999 -999
2007-06-11 07:45:00 51°23.985 2°44.487 -999 -999 -999 -999
2007-06-11 07:46:00 51°23.994 2°44.505 -999 -999 -999 -999
2007-06-11 07:47:00 51°24.002 2°44.523 -999 -999 -999 -999
2007-06-11 07:48:00 51°24.009 2°44.532 -999 -999 -999 -999
2007-06-11 07:49:00 51°24.004 2°44.504 -999 -999 -999 -999
2007-06-11 07:50:00 51°23.976 2°44.458 -999 -999 -999 -999
2007-06-11 07:51:00 51°23.95 2°44.389 -999 -999 -999 -999
2007-06-11 07:52:00 51°23.927 2°44.33 -999 -999 -999 -999
2007-06-11 07:53:00 51°23.921 2°44.3 -999 -999 -999 -999
2007-06-11 07:54:00 51°23.932 2°44.305 -999 -999 -999 -999
2007-06-11 07:55:00 51°23.946 2°44.317 -999 -999 -999 -999
2007-06-11 07:56:00 51°23.958 2°44.333 -999 -999 -999 -999
2007-06-11 07:57:00 51°23.967 2°44.355 -999 -999 -999 -999
2007-06-11 07:58:00 51°23.974 2°44.383 -999 -999 -999 -999
2007-06-11 07:59:00 51°23.983 2°44.399 -999 -999 -999 -999
2007-06-11 08:00:01 51°23.985 2°44.389 -999 -999 -999 -999
2007-06-11 08:01:00 51°23.975 2°44.36 -999 -999 -999 -999
2007-06-11 08:02:00 51°23.95 2°44.313 -999 -999 -999 -999
2007-06-11 08:03:00 51°23.926 2°44.287 -999 -999 -999 -999
2007-06-11 08:04:00 51°23.918 2°44.3 -999 -999 -999 -999
2007-06-11 08:05:00 51°23.918 2°44.325 -999 -999 -999 -999
2007-06-11 08:06:00 51°23.922 2°44.351 -999 -999 -999 -999
2007-06-11 08:07:00 51°23.928 2°44.379 -999 -999 -999 -999
2007-06-11 08:08:00 51°23.93 2°44.41 -999 -999 -999 -999
2007-06-11 08:09:00 51°23.915 2°44.429 -999 -999 -999 -999
2007-06-11 08:10:00 51°23.911 2°44.409 -999 -999 -999 -999
2007-06-11 08:11:01 51°23.917 2°44.369 -999 -999 -999 -999
2007-06-11 08:12:00 51°23.915 2°44.32 -999 -999 -999 -999
2007-06-11 08:13:00 51°23.931 2°44.298 -999 -999 -999 -999
2007-06-11 08:14:00 51°23.944 2°44.29 -999 -999 -999 -999
2007-06-11 08:15:00 51°23.944 2°44.28 -999 -999 -999 -999
2007-06-11 08:16:00 51°23.934 2°44.269 -999 -999 -999 -999
2007-06-11 08:17:00 51°23.932 2°44.264 -999 -999 -999 -999
2007-06-11 08:18:00 51°23.936 2°44.265 -999 -999 -999 -999
2007-06-11 08:19:00 51°23.944 2°44.271 -999 -999 -999 -999
2007-06-11 08:20:01 51°23.956 2°44.283 -999 -999 -999 -999
2007-06-11 08:21:00 51°23.969 2°44.289 -999 -999 -999 -999
2007-06-11 08:22:00 51°23.968 2°44.273 -999 -999 -999 -999
2007-06-11 08:23:00 51°23.941 2°44.26 -999 -999 -999 -999
2007-06-11 08:24:00 51°23.911 2°44.266 -999 -999 -999 -999
2007-06-11 08:25:00 51°23.895 2°44.295 -999 -999 -999 -999
2007-06-11 08:26:00 51°23.905 2°44.325 -999 -999 -999 -999
2007-06-11 08:27:00 51°23.922 2°44.35 -999 -999 -999 -999
2007-06-11 08:28:00 51°23.936 2°44.377 -999 -999 -999 -999
2007-06-11 08:29:01 51°23.948 2°44.406 -999 -999 -999 -999
2007-06-11 08:30:00 51°23.956 2°44.436 -999 -999 -999 -999
2007-06-11 08:31:00 51°23.891 2°44.472 -999 -999 -999 -999
2007-06-11 08:32:00 51°23.73 2°44.456 -999 -999 -999 -999
2007-06-11 08:33:00 51°23.581 2°44.301 -999 -999 -999 -999
2007-06-11 08:34:00 51°23.525 2°44.015 -999 -999 -999 -999
2007-06-11 08:35:00 51°23.485 2°43.716 -999 -999 -999 -999
2007-06-11 08:36:00 51°23.442 2°43.419 -999 -999 -999 -999
2007-06-11 08:37:00 51°23.393 2°43.123 -999 -999 -999 -999
2007-06-11 08:38:01 51°23.341 2°42.824 -999 -999 -999 -999
2007-06-11 08:39:00 51°23.29 2°42.532 -999 -999 -999 -999
2007-06-11 08:40:00 51°23.237 2°42.236 -999 -999 -999 -999
2007-06-11 08:41:00 51°23.184 2°41.94 -999 -999 -999 -999
2007-06-11 08:42:00 51°23.13 2°41.643 -999 -999 -999 -999
2007-06-11 08:43:00 51°23.074 2°41.347 -999 -999 -999 -999
2007-06-11 08:44:00 51°23.018 2°41.05 -999 -999 -999 -999
2007-06-11 08:45:00 51°22.964 2°40.751 -999 -999 -999 -999
2007-06-11 08:46:00 51°22.869 2°40.491 -999 -999 -999 -999
2007-06-11 08:47:00 51°22.696 2°40.359 -999 -999 -999 -999
2007-06-11 08:48:00 51°22.516 2°40.233 -999 -999 -999 -999
2007-06-11 08:49:00 51°22.338 2°40.103 -999 -999 -999 -999
2007-06-11 08:50:00 51°22.161 2°39.966 -999 -999 -999 -999
2007-06-11 08:51:00 51°21.985 2°39.827 -999 -999 -999 -999
2007-06-11 08:52:00 51°21.809 2°39.69 -999 -999 -999 -999
2007-06-11 08:53:00 51°21.634 2°39.553 -999 -999 -999 -999
2007-06-11 08:54:00 51°21.457 2°39.416 -999 -999 -999 -999
2007-06-11 08:55:00 51°21.279 2°39.277 -999 -999 -999 -999
2007-06-11 08:56:00 51°21.102 2°39.135 -999 -999 -999 -999
2007-06-11 08:57:00 51°20.946 2°38.941 -999 -999 -999 -999
2007-06-11 08:58:00 51°20.793 2°38.739 -999 -999 -999 -999
2007-06-11 08:59:00 51°20.639 2°38.54 -999 -999 -999 -999
2007-06-11 09:00:00 51°20.486 2°38.347 -999 -999 -999 -999
2007-06-11 09:01:00 51°20.335 2°38.156 -999 -999 -999 -999
2007-06-11 09:02:00 51°20.189 2°37.958 -999 -999 -999 -999
2007-06-11 09:03:00 51°20.182 2°37.695 -999 -999 -999 -999
2007-06-11 09:04:00 51°20.169 2°37.486 -999 -999 -999 -999
2007-06-11 09:05:00 51°20.124 2°37.296 -999 -999 -999 -999
2007-06-11 09:06:00 51°20.083 2°37.099 -999 -999 -999 -999
2007-06-11 09:07:00 51°20.028 2°36.963 -999 -999 -999 -999
2007-06-11 09:08:00 51°20.027 2°36.893 -999 -999 -999 -999
2007-06-11 09:09:00 51°20.053 2°36.868 -999 -999 -999 -999
2007-06-11 09:10:00 51°20.073 2°36.871 -999 -999 -999 -999
2007-06-11 09:11:00 51°20.09 2°36.888 -999 -999 -999 -999
2007-06-11 09:12:00 51°20.105 2°36.907 -999 -999 -999 -999
2007-06-11 09:13:00 51°20.12 2°36.929 -999 -999 -999 -999
2007-06-11 09:14:00 51°20.133 2°36.953 -999 -999 -999 -999
2007-06-11 09:15:00 51°20.144 2°36.978 -999 -999 -999 -999
2007-06-11 09:16:00 51°20.159 2°36.988 -999 -999 -999 -999
2007-06-11 09:17:00 51°20.165 2°36.978 -999 -999 -999 -999
2007-06-11 09:18:00 51°20.145 2°36.956 -999 -999 -999 -999
2007-06-11 09:19:00 51°20.119 2°36.923 -999 -999 -999 -999
2007-06-11 09:20:00 51°20.099 2°36.888 -999 -999 -999 -999
2007-06-11 09:21:00 51°20.079 2°36.886 -999 -999 -999 -999
2007-06-11 09:22:00 51°20.072 2°36.917 -999 -999 -999 -999
2007-06-11 09:23:00 51°20.07 2°36.954 -999 -999 -999 -999
2007-06-11 09:24:00 51°20.07 2°36.995 -999 -999 -999 -999
2007-06-11 09:25:00 51°20.072 2°37.039 -999 -999 -999 -999
2007-06-11 09:26:00 51°20.076 2°37.084 -999 -999 -999 -999
2007-06-11 09:27:00 51°20.08 2°37.13 -999 -999 -999 -999
2007-06-11 09:28:00 51°20.085 2°37.178 -999 -999 -999 -999
2007-06-11 09:29:00 51°20.068 2°37.242 -999 -999 -999 -999
2007-06-11 09:30:00 51°20.035 2°37.237 -999 -999 -999 -999
2007-06-11 09:31:00 51°20.059 2°37.17 -999 -999 -999 -999
2007-06-11 09:32:00 51°20.087 2°37.058 -999 -999 -999 -999
2007-06-11 09:33:00 51°20.103 2°36.947 -999 -999 -999 -999
2007-06-11 09:34:00 51°20.08 2°36.893 -999 -999 -999 -999
2007-06-11 09:35:00 51°20.069 2°36.871 -999 -999 -999 -999
2007-06-11 09:36:00 51°20.071 2°36.867 -999 -999 -999 -999
2007-06-11 09:37:00 51°20.076 2°36.871 -999 -999 -999 -999
2007-06-11 09:38:00 51°20.085 2°36.882 -999 -999 -999 -999
2007-06-11 09:39:00 51°20.095 2°36.897 -999 -999 -999 -999
2007-06-11 09:40:00 51°20.106 2°36.916 -999 -999 -999 -999
2007-06-11 09:41:00 51°20.118 2°36.939 -999 -999 -999 -999
2007-06-11 09:42:00 51°20.129 2°36.964 -999 -999 -999 -999
2007-06-11 09:43:00 51°20.142 2°36.99 -999 -999 -999 -999
2007-06-11 09:44:00 51°20.156 2°36.996 -999 -999 -999 -999
2007-06-11 09:45:00 51°20.147 2°36.959 -999 -999 -999 -999
2007-06-11 09:46:00 51°20.115 2°36.94 -999 -999 -999 -999
2007-06-11 09:47:00 51°20.097 2°36.916 -999 -999 -999 -999
2007-06-11 09:48:00 51°20.093 2°36.907 -999 -999 -999 -999
2007-06-11 09:49:00 51°20.097 2°36.911 -999 -999 -999 -999
2007-06-11 09:50:00 51°20.106 2°36.921 -999 -999 -999 -999
2007-06-11 09:51:00 51°20.116 2°36.939 -999 -999 -999 -999
2007-06-11 09:52:00 51°20.128 2°36.96 -999 -999 -999 -999
2007-06-11 09:53:00 51°20.139 2°36.986 -999 -999 -999 -999
2007-06-11 09:54:00 51°20.149 2°37.002 -999 -999 -999 -999
2007-06-11 09:55:00 51°20.132 2°36.952 -999 -999 -999 -999
2007-06-11 09:56:00 51°20.114 2°36.875 -999 -999 -999 -999
2007-06-11 09:57:00 51°20.095 2°36.848 -999 -999 -999 -999
2007-06-11 09:58:00 51°20.082 2°36.858 -999 -999 -999 -999
2007-06-11 09:59:00 51°20.081 2°36.882 -999 -999 -999 -999
2007-06-11 10:00:00 51°20.093 2°36.915 -999 -999 -999 -999
2007-06-11 10:01:00 51°20.109 2°36.948 -999 -999 -999 -999
2007-06-11 10:02:00 51°20.124 2°36.981 -999 -999 -999 -999
2007-06-11 10:03:00 51°20.136 2°37.013 -999 -999 -999 -999
2007-06-11 10:04:00 51°20.145 2°37.044 -999 -999 -999 -999
2007-06-11 10:05:00 51°20.154 2°37.075 -999 -999 -999 -999
2007-06-11 10:06:00 51°20.146 2°37.087 -999 -999 -999 -999
2007-06-11 10:07:00 51°20.113 2°37.006 -999 -999 -999 -999
2007-06-11 10:08:00 51°20.088 2°36.93 -999 -999 -999 -999
2007-06-11 10:09:00 51°20.088 2°36.892 -999 -999 -999 -999
2007-06-11 10:10:00 51°20.1 2°36.905 -999 -999 -999 -999
2007-06-11 10:11:00 51°20.112 2°36.927 -999 -999 -999 -999
2007-06-11 10:12:00 51°20.123 2°36.954 -999 -999 -999 -999
2007-06-11 10:13:00 51°20.135 2°36.966 -999 -999 -999 -999
2007-06-11 10:14:00 51°20.132 2°36.939 -999 -999 -999 -999
2007-06-11 10:15:00 51°20.023 2°36.893 -999 -999 -999 -999
2007-06-11 10:16:00 51°19.842 2°36.823 -999 -999 -999 -999
2007-06-11 10:17:00 51°19.65 2°36.73 -999 -999 -999 -999
2007-06-11 10:18:00 51°19.461 2°36.623 -999 -999 -999 -999
2007-06-11 10:19:00 51°19.279 2°36.492 -999 -999 -999 -999
2007-06-11 10:20:00 51°19.097 2°36.363 -999 -999 -999 -999
2007-06-11 10:21:00 51°18.914 2°36.239 -999 -999 -999 -999
2007-06-11 10:22:00 51°18.731 2°36.111 -999 -999 -999 -999
2007-06-11 10:23:00 51°18.545 2°35.981 -999 -999 -999 -999
2007-06-11 10:24:00 51°18.358 2°35.852 -999 -999 -999 -999
2007-06-11 10:25:00 51°18.17 2°35.717 -999 -999 -999 -999
2007-06-11 10:26:00 51°17.981 2°35.584 -999 -999 -999 -999
2007-06-11 10:27:00 51°17.794 2°35.454 -999 -999 -999 -999
2007-06-11 10:28:00 51°17.608 2°35.327 -999 -999 -999 -999
2007-06-11 10:29:00 51°17.422 2°35.195 -999 -999 -999 -999
2007-06-11 10:30:00 51°17.237 2°35.067 -999 -999 -999 -999
2007-06-11 10:31:00 51°17.051 2°34.938 -999 -999 -999 -999
2007-06-11 10:32:00 51°16.864 2°34.804 -999 -999 -999 -999
2007-06-11 10:33:00 51°16.676 2°34.666 -999 -999 -999 -999
2007-06-11 10:34:00 51°16.486 2°34.527 -999 -999 -999 -999
2007-06-11 10:35:00 51°16.295 2°34.383 -999 -999 -999 -999
2007-06-11 10:36:00 51°16.104 2°34.239 -999 -999 -999 -999
2007-06-11 10:37:00 51°15.914 2°34.093 -999 -999 -999 -999
2007-06-11 10:38:00 51°15.714 2°33.979 -999 -999 -999 -999
2007-06-11 10:39:00 51°15.525 2°33.829 -999 -999 -999 -999
2007-06-11 10:40:00 51°15.34 2°33.669 -999 -999 -999 -999
2007-06-11 10:41:00 51°15.155 2°33.509 -999 -999 -999 -999
2007-06-11 10:42:00 51°14.968 2°33.348 -999 -999 -999 -999
2007-06-11 10:43:00 51°14.782 2°33.189 -999 -999 -999 -999
2007-06-11 10:44:00 51°14.596 2°33.031 -999 -999 -999 -999
2007-06-11 10:45:00 51°14.415 2°32.865 -999 -999 -999 -999
2007-06-11 10:46:00 51°14.25 2°32.659 -999 -999 -999 -999
2007-06-11 10:47:00 51°14.092 2°32.433 -999 -999 -999 -999
2007-06-11 10:48:00 51°13.946 2°32.22 -999 -999 -999 -999
2007-06-11 10:49:00 51°13.814 2°32.034 -999 -999 -999 -999
2007-06-11 10:50:00 51°13.69 2°31.86 -999 -999 -999 -999
2007-06-11 10:51:00 51°13.593 2°31.711 -999 -999 -999 -999
2007-06-11 10:52:00 51°13.529 2°31.587 -999 -999 -999 -999
2007-06-11 10:53:00 51°13.474 2°31.476 -999 -999 -999 -999
2007-06-11 10:54:00 51°13.416 2°31.377 -999 -999 -999 -999
2007-06-11 10:55:00 51°13.363 2°31.275 -999 -999 -999 -999
2007-06-11 10:56:00 51°13.329 2°31.178 -999 -999 -999 -999
2007-06-11 10:57:00 51°13.294 2°31.117 -999 -999 -999 -999
2007-06-11 10:58:00 51°13.27 2°31.072 -999 -999 -999 -999
2007-06-11 10:59:00 51°13.243 2°31.048 -999 -999 -999 -999
2007-06-11 11:00:00 51°13.21 2°31.058 -999 -999 -999 -999
2007-06-11 11:01:00 51°13.188 2°31.117 -999 -999 -999 -999
2007-06-11 11:02:00 51°13.2 2°31.186 -999 -999 -999 -999
2007-06-11 11:03:00 51°13.236 2°31.22 -999 -999 -999 -999
2007-06-11 11:04:00 51°13.268 2°31.212 -999 -999 -999 -999
2007-06-11 11:05:00 51°13.286 2°31.192 -999 -999 -999 -999
2007-06-11 11:06:00 51°13.294 2°31.174 -999 -999 -999 -999
2007-06-11 11:07:00 51°13.298 2°31.161 -999 -999 -999 -999
2007-06-11 11:08:00 51°13.297 2°31.161 -999 -999 -999 -999
2007-06-11 11:09:00 51°13.291 2°31.17 -999 -999 -999 -999
2007-06-11 11:10:00 51°13.286 2°31.18 -999 -999 -999 -999
2007-06-11 11:11:00 51°13.282 2°31.189 -999 -999 -999 -999
2007-06-11 11:12:00 51°13.278 2°31.195 -999 -999 -999 -999
2007-06-11 11:13:00 51°13.275 2°31.2 -999 -999 -999 -999
2007-06-11 11:14:00 51°13.271 2°31.205 -999 -999 -999 -999
2007-06-11 11:15:00 51°13.267 2°31.208 -999 -999 -999 -999
2007-06-11 11:16:00 51°13.262 2°31.21 -999 -999 -999 -999
2007-06-11 11:17:00 51°13.257 2°31.211 -999 -999 -999 -999
2007-06-11 11:18:00 51°13.252 2°31.211 -999 -999 -999 -999
2007-06-11 11:19:00 51°13.247 2°31.209 -999 -999 -999 -999
2007-06-11 11:20:00 51°13.242 2°31.206 -999 -999 -999 -999
2007-06-11 11:21:00 51°13.237 2°31.203 -999 -999 -999 -999
2007-06-11 11:22:00 51°13.232 2°31.199 -999 -999 -999 -999
2007-06-11 11:23:00 51°13.227 2°31.194 -999 -999 -999 -999
2007-06-11 11:24:00 51°13.222 2°31.188 -999 -999 -999 -999
2007-06-11 11:25:00 51°13.218 2°31.183 -999 -999 -999 -999
2007-06-11 11:26:00 51°13.213 2°31.177 -999 -999 -999 -999
2007-06-11 11:27:00 51°13.209 2°31.171 -999 -999 -999 -999
2007-06-11 11:28:00 51°13.205 2°31.165 -999 -999 -999 -999
2007-06-11 11:29:00 51°13.201 2°31.16 -999 -999 -999 -999
2007-06-11 11:30:00 51°13.197 2°31.153 -999 -999 -999 -999
2007-06-11 11:31:00 51°13.193 2°31.148 -999 -999 -999 -999
2007-06-11 11:32:00 51°13.188 2°31.142 -999 -999 -999 -999
2007-06-11 11:33:00 51°13.183 2°31.136 -999 -999 -999 -999
2007-06-11 11:34:00 51°13.179 2°31.13 -999 -999 -999 -999
2007-06-11 11:35:00 51°13.174 2°31.124 -999 -999 -999 -999
2007-06-11 11:36:00 51°13.168 2°31.119 -999 -999 -999 -999
2007-06-11 11:37:00 51°13.162 2°31.113 -999 -999 -999 -999
2007-06-11 11:38:00 51°13.156 2°31.107 -999 -999 -999 -999
2007-06-11 11:39:00 51°13.149 2°31.099 -999 -999 -999 -999
2007-06-11 11:40:00 51°13.143 2°31.091 -999 -999 -999 -999
2007-06-11 11:41:00 51°13.137 2°31.083 -999 -999 -999 -999
2007-06-11 11:42:00 51°13.131 2°31.074 -999 -999 -999 -999
2007-06-11 11:43:00 51°13.124 2°31.066 -999 -999 -999 -999
2007-06-11 11:44:00 51°13.117 2°31.057 -999 -999 -999 -999
2007-06-11 11:45:00 51°13.11 2°31.048 -999 -999 -999 -999
2007-06-11 11:46:00 51°13.104 2°31.038 -999 -999 -999 -999
2007-06-11 11:47:00 51°13.098 2°31.021 -999 -999 -999 -999
2007-06-11 11:48:00 51°13.118 2°30.964 -999 -999 -999 -999
2007-06-11 11:49:00 51°13.167 2°30.956 -999 -999 -999 -999
2007-06-11 11:50:00 51°13.196 2°30.971 -999 -999 -999 -999
2007-06-11 11:51:00 51°13.201 2°30.977 -999 -999 -999 -999
2007-06-11 11:52:00 51°13.201 2°30.985 -999 -999 -999 -999
2007-06-11 11:53:00 51°13.2 2°30.993 -999 -999 -999 -999
2007-06-11 11:54:00 51°13.197 2°31.002 -999 -999 -999 -999
2007-06-11 11:55:01 51°13.194 2°31.01 -999 -999 -999 -999
2007-06-11 11:56:01 51°13.191 2°31.015 -999 -999 -999 -999
2007-06-11 11:57:01 51°13.188 2°31.019 -999 -999 -999 -999
2007-06-11 11:58:01 51°13.185 2°31.023 -999 -999 -999 -999
2007-06-11 11:59:01 51°13.182 2°31.025 -999 -999 -999 -999
2007-06-11 12:00:01 51°13.179 2°31.027 -999 -999 -999 -999
2007-06-11 12:01:01 51°13.176 2°31.029 -999 -999 -999 -999
2007-06-11 12:02:01 51°13.173 2°31.031 -999 -999 -999 -999
2007-06-11 12:03:01 51°13.17 2°31.031 -999 -999 -999 -999
2007-06-11 12:04:01 51°13.167 2°31.031 -999 -999 -999 -999
2007-06-11 12:05:01 51°13.163 2°31.031 -999 -999 -999 -999
2007-06-11 12:06:01 51°13.159 2°31.029 -999 -999 -999 -999
2007-06-11 12:07:01 51°13.164 2°31.052 -999 -999 -999 -999
2007-06-11 12:08:01 51°13.186 2°31.128 -999 -999 -999 -999
2007-06-11 12:09:01 51°13.209 2°31.205 -999 -999 -999 -999
2007-06-11 12:10:01 51°13.226 2°31.253 -999 -999 -999 -999
2007-06-11 12:11:01 51°13.24 2°31.283 -999 -999 -999 -999
2007-06-11 12:12:01 51°13.249 2°31.301 -999 -999 -999 -999
2007-06-11 12:13:01 51°13.254 2°31.312 -999 -999 -999 -999
2007-06-11 12:14:01 51°13.256 2°31.317 -999 -999 -999 -999
2007-06-11 12:15:01 51°13.255 2°31.32 -999 -999 -999 -999
2007-06-11 12:16:01 51°13.254 2°31.32 -999 -999 -999 -999
2007-06-11 12:17:01 51°13.25 2°31.318 -999 -999 -999 -999
2007-06-11 12:18:01 51°13.245 2°31.314 -999 -999 -999 -999
2007-06-11 12:19:01 51°13.238 2°31.31 -999 -999 -999 -999
2007-06-11 12:20:01 51°13.244 2°31.328 -999 -999 -999 -999
2007-06-11 12:21:01 51°13.278 2°31.387 -999 -999 -999 -999
2007-06-11 12:22:01 51°13.303 2°31.419 -999 -999 -999 -999
2007-06-11 12:23:01 51°13.32 2°31.436 -999 -999 -999 -999
2007-06-11 12:24:01 51°13.331 2°31.445 -999 -999 -999 -999
2007-06-11 12:25:01 51°13.336 2°31.447 -999 -999 -999 -999
2007-06-11 12:26:01 51°13.338 2°31.448 -999 -999 -999 -999
2007-06-11 12:27:01 51°13.337 2°31.447 -999 -999 -999 -999
2007-06-11 12:28:01 51°13.335 2°31.444 -999 -999 -999 -999
2007-06-11 12:29:01 51°13.333 2°31.438 -999 -999 -999 -999
2007-06-11 12:30:01 51°13.331 2°31.43 -999 -999 -999 -999
2007-06-11 12:31:01 51°13.328 2°31.421 -999 -999 -999 -999
2007-06-11 12:32:01 51°13.336 2°31.445 -999 -999 -999 -999
2007-06-11 12:33:01 51°13.33 2°31.592 -999 -999 -999 -999
2007-06-11 12:34:01 51°13.391 2°31.863 -999 -999 -999 -999
2007-06-11 12:35:01 51°13.463 2°32.172 -999 -999 -999 -999
2007-06-11 12:36:01 51°13.528 2°32.484 -999 -999 -999 -999
2007-06-11 12:37:01 51°13.588 2°32.8 -999 -999 -999 -999
2007-06-11 12:38:01 51°13.647 2°33.118 -999 -999 -999 -999
2007-06-11 12:39:01 51°13.706 2°33.433 -999 -999 -999 -999
2007-06-11 12:40:01 51°13.765 2°33.749 -999 -999 -999 -999
2007-06-11 12:41:01 51°13.824 2°34.066 -999 -999 -999 -999
2007-06-11 12:42:01 51°13.876 2°34.384 -999 -999 -999 -999
2007-06-11 12:43:01 51°13.924 2°34.704 -999 -999 -999 -999
2007-06-11 12:44:01 51°13.956 2°35.03 -999 -999 -999 -999
2007-06-11 12:45:01 51°13.99 2°35.352 -999 -999 -999 -999
2007-06-11 12:46:01 51°14.024 2°35.675 -999 -999 -999 -999
2007-06-11 12:47:01 51°14.058 2°35.997 -999 -999 -999 -999
2007-06-11 12:48:01 51°14.092 2°36.319 -999 -999 -999 -999
2007-06-11 12:49:01 51°14.124 2°36.64 -999 -999 -999 -999
2007-06-11 12:50:01 51°14.15 2°36.96 -999 -999 -999 -999
2007-06-11 12:51:01 51°14.17 2°37.281 -999 -999 -999 -999
2007-06-11 12:52:01 51°14.184 2°37.601 -999 -999 -999 -999
2007-06-11 12:53:01 51°14.203 2°37.922 -999 -999 -999 -999
2007-06-11 12:54:01 51°14.223 2°38.246 -999 -999 -999 -999
2007-06-11 12:55:01 51°14.242 2°38.569 -999 -999 -999 -999
2007-06-11 12:56:01 51°14.262 2°38.89 -999 -999 -999 -999
2007-06-11 12:57:01 51°14.282 2°39.209 -999 -999 -999 -999
2007-06-11 12:58:01 51°14.302 2°39.532 -999 -999 -999 -999
2007-06-11 12:59:01 51°14.322 2°39.856 -999 -999 -999 -999
2007-06-11 13:00:01 51°14.343 2°40.179 -999 -999 -999 -999
2007-06-11 13:01:01 51°14.366 2°40.503 -999 -999 -999 -999
2007-06-11 13:02:01 51°14.386 2°40.826 -999 -999 -999 -999
2007-06-11 13:03:01 51°14.406 2°41.149 -999 -999 -999 -999
2007-06-11 13:04:01 51°14.426 2°41.472 -999 -999 -999 -999
2007-06-11 13:05:01 51°14.445 2°41.795 -999 -999 -999 -999
2007-06-11 13:06:01 51°14.463 2°42.119 -999 -999 -999 -999
2007-06-11 13:07:01 51°14.475 2°42.444 -999 -999 -999 -999
2007-06-11 13:08:01 51°14.486 2°42.769 -999 -999 -999 -999
2007-06-11 13:09:01 51°14.496 2°43.092 -999 -999 -999 -999
2007-06-11 13:10:01 51°14.505 2°43.416 -999 -999 -999 -999
2007-06-11 13:11:01 51°14.514 2°43.738 -999 -999 -999 -999
2007-06-11 13:12:01 51°14.52 2°44.06 -999 -999 -999 -999
2007-06-11 13:13:01 51°14.529 2°44.38 -999 -999 -999 -999
2007-06-11 13:14:01 51°14.54 2°44.701 -999 -999 -999 -999
2007-06-11 13:15:01 51°14.552 2°45.018 -999 -999 -999 -999
2007-06-11 13:16:01 51°14.566 2°45.333 -999 -999 -999 -999
2007-06-11 13:17:01 51°14.58 2°45.644 -999 -999 -999 -999
2007-06-11 13:18:01 51°14.587 2°45.958 -999 -999 -999 -999
2007-06-11 13:19:01 51°14.596 2°46.28 -999 -999 -999 -999
2007-06-11 13:20:01 51°14.606 2°46.6 -999 -999 -999 -999
2007-06-11 13:21:01 51°14.615 2°46.92 -999 -999 -999 -999
2007-06-11 13:22:01 51°14.624 2°47.239 -999 -999 -999 -999
2007-06-11 13:23:01 51°14.634 2°47.557 -999 -999 -999 -999
2007-06-11 13:24:01 51°14.644 2°47.873 -999 -999 -999 -999
2007-06-11 13:25:01 51°14.654 2°48.191 -999 -999 -999 -999
2007-06-11 13:26:01 51°14.661 2°48.51 -999 -999 -999 -999
2007-06-11 13:27:01 51°14.67 2°48.83 -999 -999 -999 -999
2007-06-11 13:28:01 51°14.678 2°49.15 -999 -999 -999 -999
2007-06-11 13:29:01 51°14.687 2°49.47 -999 -999 -999 -999
2007-06-11 13:30:01 51°14.696 2°49.789 -999 -999 -999 -999
2007-06-11 13:31:01 51°14.703 2°50.108 -999 -999 -999 -999
2007-06-11 13:32:01 51°14.711 2°50.426 -999 -999 -999 -999
2007-06-11 13:33:01 51°14.719 2°50.746 -999 -999 -999 -999
2007-06-11 13:34:01 51°14.726 2°51.066 -999 -999 -999 -999
2007-06-11 13:35:01 51°14.733 2°51.384 -999 -999 -999 -999
2007-06-11 13:36:01 51°14.74 2°51.702 -999 -999 -999 -999
2007-06-11 13:37:01 51°14.746 2°52.02 -999 -999 -999 -999
2007-06-11 13:38:01 51°14.749 2°52.337 -999 -999 -999 -999
2007-06-11 13:39:00 51°14.753 2°52.649 -999 -999 -999 -999
2007-06-11 13:40:00 51°14.748 2°52.969 -999 -999 -999 -999
2007-06-11 13:41:01 51°14.733 2°53.288 -999 -999 -999 -999
2007-06-11 13:42:01 51°14.711 2°53.604 -999 -999 -999 -999
2007-06-11 13:43:01 51°14.668 2°53.915 -999 -999 -999 -999
2007-06-11 13:44:01 51°14.618 2°54.227 -999 -999 -999 -999
2007-06-11 13:45:01 51°14.542 2°54.526 -999 -999 -999 -999
2007-06-11 13:46:01 51°14.451 2°54.815 -999 -999 -999 -999
2007-06-11 13:47:01 51°14.346 2°55.093 -999 -999 -999 -999
2007-06-11 13:48:01 51°14.219 2°55.327 -999 -999 -999 -999
2007-06-11 13:49:01 51°14.084 2°55.442 -999 -999 -999 -999
2007-06-11 13:50:01 51°13.968 2°55.529 -999 -999 -999 -999
2007-06-11 13:51:05 51°13.856 2°55.612 -999 -999 -999 -999
2007-06-11 13:52:05 51°13.762 2°55.704 -999 -999 -999 -999
2007-06-11 13:53:05 51°13.706 2°55.798 -999 -999 -999 -999
2007-06-11 13:54:05 51°13.662 2°55.885 -999 -999 -999 -999
2007-06-11 13:55:05 51°13.629 2°55.967 -999 -999 -999 -999
2007-06-11 13:56:05 51°13.608 2°56.041 -999 -999 -999 -999
2007-06-11 13:57:05 51°13.6 2°56.087 -999 -999 -999 -999
2007-06-11 13:58:05 51°13.597 2°56.093 -999 -999 -999 -999